Flag for Norway Weather past 2 weeks in Ny-Ålesund, Svalbard, Norway

Now
40 °F

Quite cool.


Feels Like: 38 °F
Forecast: 30 / 38 °F
Wind: 3 mph from Northwest

Location: Ny Alesund

Current Time: Jun 30, 2015 at 7:45:14 AM

Latest Report: Jun 30, 2015 at 7:00 AM


Visibility: N/A

Pressure: 30.05 "Hg

Humidity: 71%

Dew point: 31 °F

Location of Ny-ÅlesundLocation

Historic Weather in Ny-Ålesund — Graph

°F

Ny-Ålesund temperature yesterday

Maximum temperature yesterday: 42 °F (at 6:00 PM)
Minimum temperature yesterday: 38 °F (at 4:00 AM)
Average temperature yesterday: 40 °F

Past Weeks' High & Low Weather Summary

 TemperatureHumidityPressure
High48 °F (Jun 15, 5:00 PM)86% (Jun 17, 12:00 AM)30.22 "Hg (Jun 17, 12:00 AM)
Low35 °F (Jun 17, 1:00 AM)50% (Jun 28, 12:00 PM)29.70 "Hg (Jun 18, 6:00 AM)
Average40 °F70%29.96 "Hg
* Reported Jun 15 4:00 AM — Jun 30 4:00 AM, Ny-Ålesund, Weather by CustomWeather, © 2015

Note: Actual official high and low records may vary slightly from our data, if they occured in-between our weather recording intervals... More about our weather records

Advertising

Ny-Ålesund weather history for previous 24 hours

 ConditionsComfort  
Time TempWeatherWind HumidityBarometerVisibility
4:00 AM
Tue, Jun 30
40 °FChilly.5 mph67%30.06 "HgN/A
3:00 AM40 °FChilly.3 mph69%30.06 "HgN/A
2:00 AM40 °FQuite cool.3 mph64%30.07 "HgN/A
1:00 AM41 °FQuite cool.3 mph63%30.07 "HgN/A
12:00 AM41 °FQuite cool.3 mph59%30.07 "HgN/A
10:00 PM
Mon, Jun 29
40 °FQuite cool.3 mph56%30.07 "HgN/A
9:00 PM41 °FQuite cool.5 mph55%30.07 "HgN/A
8:00 PM41 °FOvercast.5 mph56%30.08 "Hg47 mi
7:00 PM41 °FQuite cool.3 mphN/A30.08 "HgN/A
6:00 PM42 °FQuite cool.3 mph50%30.08 "HgN/A
5:00 PM40 °FQuite cool.2 mph60%30.08 "HgN/A
4:00 PM41 °FQuite cool.2 mph53%30.08 "HgN/A
3:00 PM40 °FQuite cool.3 mph57%30.08 "HgN/A
2:00 PM40 °FOvercast.5 mph61%30.08 "Hg12 mi
1:00 PM40 °FChilly.2 mph63%30.08 "HgN/A
12:00 PM40 °FChilly.1 mph54%30.08 "HgN/A
11:00 AM39 °FChilly.1 mph55%30.08 "HgN/A
10:00 AM38 °FChilly.5 mph60%30.07 "HgN/A
9:00 AM39 °FChilly.7 mph57%30.06 "HgN/A
8:00 AM39 °FOvercast.6 mph57%30.05 "Hg47 mi
7:00 AM38 °FChilly.6 mph57%30.05 "HgN/A
Weather by CustomWeather, © 2015

See weather overviewHow to use our weather pages